Flag Weather past 2 weeks in Taipei, Taiwan

Now
77 °F

Passing clouds.


Feels Like: 79 °F
Forecast: 68 / 84 °F
Wind: 12 mph from East

Location: Sungshan / Taipei

Current Time: Nov 23, 2014 at 8:55:16 AM

Latest Report: Nov 23, 2014 at 8:00 AM


Visibility: N/A

Pressure: 30.07 "Hg

Humidity: 65%

Dew point: 64 °F

Location of TaipeiLocation

Historic Weather in Taipei — Graph

°F

Taipei temperature yesterday

Maximum temperature yesterday: 82 °F (at 11:00 AM)
Minimum temperature yesterday: 66 °F (at 5:00 AM)
Average temperature yesterday: 76 °F

Past Weeks' High & Low Weather Summary

 TemperatureHumidityPressure
High82 °F (Nov 8, 1:30 PM)100% (Nov 16, 7:00 AM)30.24 "Hg (Nov 16, 7:00 AM)
Low63 °F (Nov 13, 6:00 AM)48% (Nov 8, 1:30 PM)29.95 "Hg (Nov 22, 1:30 PM)
Average70 °F74%30.10 "Hg
* Reported Nov 8 7:00 AM — Nov 23 7:30 AM, Taipei, Weather by CustomWeather, © 2014

Note: Actual official high and low records may vary slightly from our data, if they occured in-between our weather recording intervals... More about our weather records

Advertising

Taipei weather history for previous 24 hours

 ConditionsComfort  
Time TempWeatherWind HumidityBarometerVisibility
7:30 AM
Nov 23
75 °FPassing clouds.10 mph69%30.07 "HgN/A
7:00 AM75 °FPassing clouds.12 mph69%30.04 "HgN/A
6:30 AM73 °FPassing clouds.12 mph74%30.04 "HgN/A
6:00 AM72 °FPassing clouds.10 mph78%30.04 "HgN/A
5:00 AM72 °FPassing clouds.9 mph73%30.01 "HgN/A
4:00 AM70 °FPassing clouds.9 mph78%30.01 "HgN/A
3:00 AM70 °FPassing clouds.8 mph78%30.01 "HgN/A
2:00 AM73 °FPassing clouds.9 mph69%30.01 "HgN/A
1:00 AM73 °FPassing clouds.10 mph69%30.01 "HgN/A
12:00 AM73 °FPassing clouds.13 mph69%30.01 "HgN/A
11:30 PM
Nov 22
75 °FPassing clouds.12 mph65%30.04 "HgN/A
11:00 PM75 °FPassing clouds.13 mph65%30.04 "HgN/A
10:30 PM75 °FPassing clouds.12 mph65%30.04 "HgN/A
10:00 PM75 °FPassing clouds.13 mph65%30.04 "HgN/A
9:30 PM75 °FPassing clouds.14 mph65%30.01 "HgN/A
9:00 PM75 °FPassing clouds.14 mph69%30.01 "HgN/A
8:30 PM75 °FPassing clouds.14 mph69%30.01 "HgN/A
8:00 PM75 °FPassing clouds.13 mph65%30.01 "HgN/A
7:30 PM75 °FPassing clouds.14 mph65%30.01 "HgN/A
7:00 PM75 °FPassing clouds.13 mph65%30.01 "HgN/A
6:30 PM75 °FPassing clouds.14 mph65%29.98 "HgN/A
6:00 PM75 °FPassing clouds.14 mph65%29.98 "HgN/A
5:30 PM77 °FPassing clouds.14 mph61%29.98 "HgN/A
5:00 PM77 °FPassing clouds.14 mph61%29.98 "HgN/A
4:30 PM79 °FPassing clouds.14 mph54%29.98 "HgN/A
4:00 PM81 °FPassing clouds.16 mph51%29.95 "HgN/A
3:30 PM81 °FPassing clouds.17 mph51%29.95 "HgN/A
3:00 PM81 °FPassing clouds.20 mph51%29.95 "HgN/A
2:30 PM82 °FPassing clouds.14 mph51%29.95 "HgN/A
2:00 PM81 °FPassing clouds.15 mph58%29.95 "HgN/A
1:30 PM82 °FPassing clouds.15 mph51%29.95 "HgN/A
1:00 PM82 °FPassing clouds.14 mph51%29.98 "HgN/A
12:30 PM82 °FPassing clouds.16 mph48%29.98 "HgN/A
12:00 PM82 °FPassing clouds.14 mph51%30.01 "HgN/A
11:30 AM82 °FPassing clouds.13 mph51%30.01 "HgN/A
11:00 AM82 °FPassing clouds.12 mph51%30.04 "HgN/A
10:30 AM81 °FPassing clouds.12 mph54%30.07 "HgN/A
10:00 AM81 °FPassing clouds.12 mph54%30.07 "HgN/A
9:30 AM79 °FPassing clouds.12 mph61%30.07 "HgN/A
9:00 AM77 °FPassing clouds.12 mph69%30.07 "HgN/A
8:30 AM75 °FPassing clouds.10 mph78%30.07 "HgN/A
8:00 AM73 °FPassing clouds.8 mph78%30.07 "HgN/A
Weather by CustomWeather, © 2014

See weather overviewHow to use our weather pages